Retour au catalogue

NINGXIA-1 1

ActifScienceLEO
NORAD 44779·PAYLOAD·🇨🇳 China

Lancé Nov 13, 2019 depuis Taiyuan Satellite Launch Center

Loading…

Prochains Passages (prochaines 24 heures)

TLE

FraisSource: Space-Track

Époque: Sep 14, 2026, 23:07 UTC

1 44779U 19076A   26257.96362102 -.00000011  00000-0  76964-4 0  9994
2 44779  45.0049 138.6279 0011182 223.1285 136.8673 14.02114575350458

Suivez NINGXIA-1 1 en temps réel avec AllMySat

Download on the App Store